BEIDOU-3 G1 (C59)

Last updated on Dec. 12, 2019, 4:25 a.m. UTC

1 43683U 18085A   19345.86287137 -.00000223  00000-0  00000+0 0  9997
2 43683   2.1852 263.5806 0001310  15.8081 256.0181  1.00268682  4204
UTC
Height (km)
Latitude
Longitude
Inclination
Orbital Period
UTC large
Height (km)
Speed (km/s)
/
Latitude / Longitude
Inclination (degrees)
Orbital Period (minutes)
Azimuth
Elevation
Range (km)
Doppler Factor
iOS Compass Heading
iOS Angle

Next 30 passes for location: Hong Kong

Rise time Rise Azimuth (degrees) Set time Set Azimuth (degrees) Duration Max altitude (degrees)

No matching passes for this satellites